Regional Weather Roundup
Issued by NWS

Home | Current Version | Previous Version | Graphics & Text | Print | Product List | Glossary Off
Versions: 1 2 3 4 5 6 7 8 9 10 11 12 13 14 15 16 17 18 19 20 21 22 23 24 25 26 27 28 29 30 31 32 33 34 35 36 37 38 39 40 41 42 43 44 45 46 47 48 49 50

125
ASUS43 KTOP 081959
RWRKS

WEATHER ROUNDUP FOR KANSAS
NATIONAL WEATHER SERVICE GOODLAND KS
200 PM CST THU DEC 08 2016

NOTE:  "FAIR" INDICATES FEW OR NO CLOUDS BELOW 12,000 FEET WITH NO
SIGNIFICANT WEATHER AND/OR OBSTRUCTIONS TO VISIBILITY.

KSZ001>006-013>018-027>032-041>047-082100-
NORTHWEST KANSAS

CITY           SKY/WX    TMP DP  RH WIND       PRES   REMARKS
GOODLAND       SUNNY     17   3  54 NW3       30.51F
HILL CITY      SUNNY     22   4  46 N12       30.62F WCI  10
RUSSELL        SUNNY     24   6  46 NW15      30.62F WCI  11
$$

KSZ061>065-074>080-084>089-082100-
SOUTHWEST KANSAS

CITY           SKY/WX    TMP DP  RH WIND       PRES   REMARKS
DODGE CITY     SUNNY     22   5  48 N7        30.61F
ELKHART          N/A     23  -2  33 SE3         N/A
$$

KSZ066>073-081>083-090>101-082100-
SOUTHEAST KANSAS

CITY           SKY/WX    TMP DP  RH WIND       PRES   REMARKS
CHANUTE        SUNNY     28  15  58 NW12      30.63F WCI  18
COFFEYVILLE    SUNNY     30  12  47 NW8       30.66F
HUTCHINSON     SUNNY     29   6  38 NW15      30.63F WCI  18
MEDICINE LODGE   N/A     28   4  35 VRB7      30.65F
PARSONS        SUNNY     30  13  49 NW13      30.65F WCI  20
WICHITA INTL   MOSUNNY   29   6  38 N14       30.64F WCI  18
$$

KSZ007>012-019>026-033>040-048>060-102>105-082100-
NORTHEAST KANSAS

CITY           SKY/WX    TMP DP  RH WIND       PRES   REMARKS
EMPORIA        SUNNY     26  13  57 NW15G21   30.63F WCI  14
LAWRENCE       MOSUNNY   26  14  60 NW10      30.63S WCI  16
MANHATTAN      SUNNY     27  10  49 W12G17    30.65F WCI  17
OLATHE IND     MOSUNNY   25  12  58 W13       30.61S WCI  14
OLATHE EXE     SUNNY     24  10  55 NW14      30.60S WCI  12
SALINA         SUNNY     25  10  53 NW15      30.66F WCI  13
TOPEKA BILLARD SUNNY     27  12  53 W13       30.64S WCI  16
TOPEKA FORBES  SUNNY     27  12  53 NW14      30.62F WCI  16
$$




USA.gov is the U.S. government's official web portal to all federal, state and local government web resources and services.